This is the latest recevied weather packets stored in our database for station/object KB1FPD. If no packets are shown the sender has not sent any weather packets the latest 10 day(s).
| Time | Temp. | Humidity | Pressure | Rain* | Wind** | Luminosity | Snow |
|---|---|---|---|---|---|---|---|
| 1777513779 | 12.78° C | 95% | 1007.9 hPa | 1.78 mm | - | - | - |
| 1777513483 | 12.78° C | 95% | 1008.1 hPa | 2.54 mm | - | - | - |
| 1777513185 | 12.78° C | 95% | 1007.9 hPa | 3.05 mm | - | - | - |
| 1777512883 | 12.78° C | 95% | 1008.2 hPa | 3.3 mm | - | - | - |
| 1777512578 | 12.78° C | 95% | 1008.1 hPa | 3.81 mm | - | - | - |
| 1777512275 | 12.78° C | 95% | 1007.9 hPa | 3.81 mm | - | - | - |
| 1777511978 | 12.78° C | 95% | 1007.6 hPa | 4.32 mm | - | - | - |
| 1777511675 | 12.78° C | 95% | 1007.9 hPa | 5.59 mm | - | - | - |
| 1777511375 | 12.78° C | 95% | 1008.2 hPa | 5.84 mm | - | - | - |
| 1777511074 | 12.78° C | 95% | 1008.4 hPa | 6.86 mm | - | - | - |
| 1777510778 | 12.78° C | 95% | 1008.1 hPa | 7.87 mm | - | - | - |
| 1777510476 | 12.78° C | 95% | 1007.9 hPa | 8.13 mm | - | - | - |
| 1777510173 | 12.78° C | 95% | 1007.8 hPa | 7.87 mm | - | - | - |
| 1777509875 | 12.78° C | 95% | 1007.8 hPa | 7.11 mm | - | - | - |
| 1777509573 | 12.78° C | 95% | 1007.6 hPa | 6.35 mm | - | - | - |
| 1777509273 | 12.78° C | 95% | 1007.4 hPa | 6.35 mm | - | - | - |
| 1777508973 | 12.78° C | 95% | 1007.4 hPa | 5.84 mm | - | - | - |
| 1777508674 | 12.78° C | 95% | 1007.2 hPa | 5.84 mm | - | - | - |
| 1777508372 | 12.78° C | 95% | 1007.4 hPa | 5.59 mm | - | - | - |
| 1777508078 | 12.78° C | 95% | 1007.4 hPa | 4.32 mm | - | - | - |
| 1777507772 | 12.78° C | 95% | 1007.2 hPa | 3.81 mm | - | - | - |
| 1777507472 | 12.78° C | 95% | 1007.2 hPa | 2.79 mm | - | - | - |
| 1777507171 | 12.78° C | 95% | 1007.2 hPa | 1.52 mm | - | - | - |
| 1777506872 | 12.78° C | 94% | 1007.1 hPa | 1.02 mm | - | - | - |
| 1777506571 | 12.78° C | 94% | 1006.8 hPa | 1.02 mm | - | - | - |
* Rain latest hour (hover to see other rain measurements)
** Current wind speed in m/s (hover to see current wind gust speed)